Hourly Data Report for May 18, 2012

All times are specified in Local Standard Time (LST). Add 1 hour to adjust for Daylight Saving Time where and when it is observed.

PENTICTON A
BRITISH COLUMBIA

49°27'45.000" N
119°36'08.000" W
344.40 m
1126146
71889
YYF

Related Data

No related data is available for this station

Download Data

Hourly Data (May 2012)
Hourly Data Report for May 18, 2012
Temp Definition
°C
Dew Point Temp Definition
°C
Rel Hum Definition
%
Wind Dir Definition
10's deg

Wind Spd Definition
km/h
Visibility Definition
km
Stn Press Definition
kPa
Hmdx Definition


Wind Chill Definition


Weather Definition


TIME
00:00 Legend Double Dagger 6.6 0.5 65   0 10.0 97.34     LegendNANA
01:00 Legend Double Dagger 2.9 -0.6 78 30 5 10.0 97.37     Mostly Cloudy
02:00 Legend Double Dagger 4.2 -0.4 72 2 13 10.0 97.38     LegendNANA
03:00 Legend Double Dagger 4.1 -0.3 73 1 12 10.0 97.46     LegendNANA
04:00 Legend Double Dagger 2.6 -1.0 77 1 6 10.0 97.51     Mainly Clear
05:00 Legend Double Dagger 5.4 0.4 70 1 8 10.0 97.53     LegendNANA
06:00 Legend Double Dagger 9.8 1.2 55 34 6 10.0 97.56     LegendNANA
07:00 Legend Double Dagger 9.7 2.1 59 3 6 10.0 97.58     Mostly Cloudy
08:00 Legend Double Dagger 12.9 1.3 45 5 6 10.0 97.59     LegendNANA
09:00 Legend Double Dagger 14.3 -0.9 35 35 14 10.0 97.61     LegendNANA
10:00 Legend Double Dagger 16.0 -1.0 31 2 17 10.0 97.58     Mainly Clear
11:00 Legend Double Dagger 16.5 -1.5 29 1 14 10.0 97.57     LegendNANA
12:00 Legend Double Dagger 17.1 -2.0 27 2 14 10.0 97.53     LegendNANA
13:00 Legend Double Dagger 17.9 -0.8 28 1 18 10.0 97.50     Mainly Clear
14:00 Legend Double Dagger 18.5 -2.9 23 1 13 10.0 97.46     LegendNANA
15:00 Legend Double Dagger 18.6 -2.2 24 33 13 10.0 97.44     LegendNANA
16:00 Legend Double Dagger 17.4 -3.9 23 36 19 10.0 97.42     Mainly Clear
17:00 Legend Double Dagger 17.0 -2.0 27 35 11 10.0 97.42     LegendNANA
18:00 Legend Double Dagger 15.8 -0.8 32 3 17 10.0 97.41     LegendNANA
19:00 Legend Double Dagger 15.6 -1.0 32 1 18 10.0 97.45     Mainly Clear
20:00 Legend Double Dagger 14.2 -3.1 30 1 25 10.0 97.55     LegendNANA
21:00 Legend Double Dagger 12.8 -2.6 34 1 16 10.0 97.65     LegendNANA
22:00 Legend Double Dagger 10.8 -1.6 42 32 8 10.0 97.68     Mainly Clear
23:00 Legend Double Dagger 7.9 -1.3 52 35 9 10.0 97.69     LegendNANA

Notes on Data Quality.

Legend

  • E = Estimated
  • M = Missing
  • NA = Not Available
  • ‡ = Partner data that is not subject to review by the National Climate Archives
Date modified: